SCP
0 0 0 0 0 0 0 0 0 0 0 0 0 0 0 0 0 0 0 0 0 0 0 0 0 0 0 0 0 0 0 0 0 0 0 1 1 1 1 1 1 1 1 1
0 0 0 0 0 0 0 0 0 0 0 0 0 0 0 0 0 0 0 0 0 0 0 0 0 0 0 0 0 0 0 0 0 0 0 0 1 1 1 1 1 1 1 1
0 0 0 0 0 0 0 0 0 0 0 0 0 0 0 0 0 0 0 0 0 0 0 0 0 0 0 0 0 0 0 0 0 0 0 0 0 1 1 1 1 1 2 2
0 0 0 0 0 0 0 0 0 0 0 0 0 0 0 0 0 0 0 0 0 0 0 0 0 0 0 0 0 0 0 0 0 0 0 0 0 0 0 0 1 1 2 2
0 0 0 0 0 0 0 0 0 0 0 0 0 0 0 0 0 0 0 0 0 0 0 0 0 0 0 0 0 0 0 0 0 0 0 0 0 0 0 0 0 1 1 2
0 0 0 0 0 0 0 0 0 0 0 0 0 0 0 0 0 0 0 0 0 0 0 0 0 0 0 0 0 0 0 0 0 0 0 0 0 0 0 0 0 0 1 1
0 0 0 0 0 0 0 0 0 0 0 0 0 0 0 0 0 0 0 0 0 0 0 0 0 0 0 0 0 0 0 0 0 0 0 0 0 0 0 0 0 0 0 0
0 0 0 0 0 0 0 0 0 0 0 0 0 0 0 0 0 0 0 0 0 0 0 0 0 0 0 0 0 0 0 0 0 0 0 0 0 0 0 0 0 0 0 0
0 0 0 0 0 0 0 0 0 0 0 0 0 0 0 0 0 0 0 0 0 0 0 0 0 0 0 0 0 0 0 0 0 0 0 0 0 0 0 0 0 0 0 0
0 0 0 0 0 0 0 0 0 0 0 0 0 0 0 0 0 0 0 0 0 0 0 0 0 0 0 0 0 0 0 0 0 0 0 0 0 0 0 0 0 0 0 0
0 0 0 0 0 0 0 0 0 0 0 0 0 0 0 0 0 0 0 0 0 0 0 0 0 0 0 0 0 0 0 0 0 0 0 0 0 0 0 0 0 0 0 0
0 0 0 0 0 0 0 0 0 0 0 0 0 0 0 0 0 0 0 0 0 0 0 0 0 0 0 0 0 0 0 0 0 0 0 0 0 0 0 0 0 0 0 0
0 0 0 0 0 0 0 0 0 0 0 0 0 0 0 0 0 0 0 0 0 0 0 0 0 0 0 0 0 0 0 0 0 0 0 0 0 0 0 0 0 0 0 0
0 0 0 0 0 0 0 0 0 0 0 0 0 0 0 0 0 0 0 0 0 0 0 0 0 0 0 0 0 0 0 0 0 0 0 0 0 0 0 0 0 0 0 0
0 0 0 0 0 0 0 0 0 0 0 0 0 0 0 0 0 0 0 0 0 0 0 0 0 0 0 0 0 0 0 0 0 0 0 0 0 0 0 0 0 0 0 0
0 0 0 0 0 0 0 0 0 0 0 0 0 0 0 0 0 0 0 0 0 0 0 0 0 0 0 0 0 0 0 0 0 0 0 0 0 0 0 0 0 0 0 0
0 0 0 0 0 0 0 0 0 0 0 0 0 0 0 0 0 0 0 0 0 0 0 0 0 0 0 0 0 0 0 0 0 0 0 0 0 0 0 0 0 0 0 0
0 0 0 0 0 0 0 0 0 0 0 0 0 0 0 0 0 0 0 0 0 0 0 0 0 0 0 0 0 0 0 0 0 0 0 0 0 0 0 0 0 0 0 0
0 0 0 0 0 0 0 0 0 0 0 0 0 0 0 0 0 0 0 0 0 0 0 0 0 0 0 0 0 0 0 0 0 0 0 0 0 0 0 0 0 0 0 0
0 0 0 0 0 0 0 0 0 0 0 0 0 0 0 0 0 0 0 0 0 0 0 0 0 0 0 0 0 0 0 0 0 0 0 0 0 0 0 0 0 0 0 0
0 0 0 0 0 0 0 0 0 0 0 0 0 0 0 0 0 0 0 0 0 0 0 0 0 0 0 0 0 0 0 0 0 0 0 0 0 0 0 0 0 0 0 0
0 0 0 0 0 0 0 0 0 0 0 0 0 0 0 0 0 0 0 0 0 0 0 0 0 0 0 0 0 0 0 0 0 0 0 0 0 0 0 0 0 0 0 0
0 0 0 0 0 0 0 0 0 0 0 0 0 0 0 0 0 0 0 0 0 0 0 0 0 0 0 0 0 0 0 0 0 0 0 0 0 0 0 0 0 0 0 0
0 0 0 0 0 0 0 0 0 0 0 0 0 0 0 0 0 0 0 0 0 0 0 0 0 0 0 0 0 0 0 0 0 0 0 0 0 0 0 0 0 0 0 0
0 0 0 0 0 0 0 0 0 0 0 0 0 0 0 0 0 0 0 0 0 0 0 0 0 0 0 0 0 0 0 0 0 0 0 0 0 0 0 0 0 0 0 0
0 0 0 0 0 0 0 0 0 0 0 0 0 0 0 0 0 0 0 0 0 0 0 0 0 0 0 0 0 0 0 0 0 0 0 0 0 0 0 0 0 0 0 0
Wind_Speed
2 4 2 5 5 4 3 2 2 3 2 1 4 6 6 4 2 3 3 3 3 3 2 1 1 1 2 2 3 2 2 2 2 1 1 1 0 1 1 1 2 2 3 4
4 1 4 2 2 1 2 1 1 3 2 1 3 6 6 5 5 5 5 4 4 2 0 0 1 1 2 2 2 2 2 1 1 1 1 1 1 1 1 1 1 2 2 2
4 3 2 2 1 2 2 3 3 2 3 2 1 5 4 3 2 1 2 2 2 3 2 1 1 1 2 2 1 2 1 1 2 2 2 2 2 2 2 1 0 0 2 2
1 2 0 2 1 2 3 3 3 2 0 3 0 4 5 3 2 2 2 2 2 2 2 2 1 1 1 1 1 1 1 2 2 2 2 3 2 1 1 1 0 1 1 2
1 0 1 2 2 3 3 1 1 1 1 2 1 3 7 1 3 4 3 2 2 3 2 2 2 2 1 1 2 2 2 2 2 2 2 2 2 1 1 1 1 1 1 1
1 1 1 2 1 2 2 3 3 3 3 3 5 5 7 3 4 3 2 2 2 2 1 1 1 2 2 2 2 2 2 2 2 1 2 2 2 2 2 1 1 1 0 1
2 2 1 1 2 2 3 4 3 3 1 6 2 4 8 4 2 3 3 2 1 1 1 1 2 2 2 2 2 1 2 2 2 1 1 1 1 2 2 2 1 1 0 1
2 3 2 0 2 3 3 5 6 5 5 4 2 6 6 3 1 1 2 2 1 1 1 1 1 1 1 1 1 1 1 1 2 1 0 0 1 1 1 1 1 2 1 1
4 3 1 1 1 3 3 3 3 4 1 2 5 5 5 1 1 2 1 2 1 0 0 1 1 1 1 1 0 0 1 1 1 1 1 0 0 0 1 1 1 1 1 1
3 2 3 2 2 1 2 3 3 4 3 4 5 5 5 4 3 1 1 1 1 0 0 0 0 0 0 0 0 1 1 0 1 1 1 0 0 0 1 1 1 1 1 1
2 3 2 1 2 4 2 2 2 2 3 4 4 7 4 5 4 4 3 3 2 2 1 1 0 0 0 1 1 1 1 1 1 1 2 1 1 1 0 1 2 2 2 2
2 4 2 4 3 2 3 5 5 4 4 3 3 8 2 2 2 3 3 3 2 2 1 1 0 0 1 1 1 1 1 1 1 1 2 2 1 1 1 1 2 2 2 2
3 4 1 4 2 1 1 2 3 3 3 4 4 8 1 2 2 1 2 2 2 1 1 0 0 0 0 0 1 1 1 1 2 2 2 2 2 1 2 2 2 2 2 2
4 3 6 8 5 3 3 4 3 4 4 5 8 9 6 5 5 4 3 2 2 1 1 1 1 1 1 1 1 1 1 2 2 2 2 2 3 2 2 3 3 3 2 3
3 3 4 5 4 3 6 7 7 8 8 9 9 9 10 7 6 5 3 2 2 2 2 2 2 2 2 2 2 2 2 2 2 2 3 3 3 3 2 2 3 3 3 3
3 3 2 4 4 5 7 8 9 10 9 10 9 12 9 6 4 4 4 4 4 4 4 3 3 3 3 3 3 2 2 2 2 2 3 3 3 3 3 3 3 3 3 3
3 4 2 4 4 3 8 10 11 8 8 8 11 11 5 4 5 6 6 5 6 6 5 4 4 4 4 4 3 3 3 2 2 3 4 3 3 3 3 3 3 3 3 3
5 4 3 1 1 7 9 3 7 8 9 9 8 6 6 7 6 6 5 6 6 5 5 5 4 4 3 3 3 3 2 2 3 3 4 4 3 4 3 3 3 4 3 3
5 6 3 2 3 9 7 4 6 7 8 8 10 8 5 3 1 4 4 5 5 5 5 5 4 4 3 3 2 2 2 3 3 4 4 4 4 4 4 4 4 4 3 3
2 4 4 3 4 8 7 3 3 3 6 5 7 8 5 2 2 6 4 3 3 3 3 3 3 2 3 3 2 2 3 3 4 4 4 4 4 4 4 4 4 4 3 4
3 3 5 6 6 10 7 3 4 4 8 4 6 6 6 7 7 5 3 3 3 3 3 3 3 3 4 3 2 3 4 5 5 4 4 4 4 4 4 4 4 3 3 3
8 6 6 5 6 11 4 6 7 8 3 2 4 5 5 6 5 4 4 4 3 3 3 3 3 3 3 3 3 4 5 5 3 3 4 4 4 4 3 3 3 3 3 3
8 9 7 10 10 5 5 7 6 3 3 3 4 4 4 4 5 5 4 4 4 4 4 3 3 4 4 3 3 5 5 4 3 3 4 4 4 3 3 3 3 3 3 3
5 3 4 6 9 7 6 5 4 4 5 5 4 4 4 5 5 5 4 4 4 4 4 3 3 4 4 4 4 5 5 4 3 4 4 3 3 3 3 3 3 3 3 3
6 5 4 7 7 5 6 8 7 6 5 4 4 4 5 5 5 5 5 5 4 4 3 3 4 5 6 5 5 4 4 4 3 4 4 3 3 3 3 3 3 4 4 5
7 9 9 10 8 6 7 6 5 5 6 5 4 4 3 5 5 5 5 4 4 4 4 4 4 5 5 5 5 4 4 4 4 4 3 3 2 2 2 3 3 5 6 8
Wind_Direction
55 83 182 211 201 195 173 175 230 254 262 203 232 254 261 256 241 232 232 221 214 224 231 204 178 138 103 91 88 89 85 70 83 84 104 112 119 127 122 112 114 126 141 146
58 251 238 224 194 169 165 173 262 300 323 237 251 270 266 247 234 215 208 215 216 223 281 72 111 117 124 123 101 89 82 84 95 78 121 139 150 121 108 106 99 135 123 142
168 236 243 168 143 166 210 194 207 248 330 342 315 296 267 267 243 228 229 216 206 194 189 170 111 89 75 79 101 113 99 91 74 66 77 80 68 58 51 45 51 101 128 135
203 269 127 128 198 175 228 222 203 212 89 286 150 279 272 247 259 246 249 248 233 218 202 181 149 119 108 87 62 96 106 90 73 84 97 110 122 131 192 192 156 64 83 102
243 278 127 180 222 181 210 223 194 212 179 293 255 232 280 261 246 256 246 238 228 215 200 168 149 145 123 98 90 68 65 65 64 84 99 114 123 135 110 78 80 65 40 71
254 281 175 194 210 167 151 57 34 43 82 261 227 198 272 236 226 243 250 238 237 225 193 155 117 97 81 66 69 75 67 42 49 82 96 105 129 133 113 90 104 72 0 355
334 321 324 84 94 40 90 97 41 355 331 249 231 206 251 253 232 208 208 225 243 179 143 128 103 88 76 67 57 65 87 48 33 71 99 136 148 162 173 178 180 174 244 302
164 272 249 144 157 177 175 149 164 197 224 274 292 236 253 278 305 147 173 182 124 100 121 147 154 141 121 79 50 50 65 54 36 33 12 100 160 177 199 205 201 208 220 235
175 239 301 221 149 147 154 187 178 143 196 267 266 280 299 268 13 35 70 102 104 94 105 118 144 139 141 131 129 133 101 49 35 23 7 74 18 219 214 205 211 224 243 241
156 210 284 306 51 21 159 152 119 145 177 248 275 263 249 246 237 242 253 271 258 252 99 69 101 146 147 143 6 51 86 84 352 358 345 40 296 244 247 219 212 221 234 235
134 156 300 347 195 195 156 157 158 163 181 185 251 263 229 212 212 218 231 245 245 223 206 226 301 52 100 45 29 32 43 40 4 351 349 335 304 308 298 259 247 237 238 227
150 131 234 253 259 239 193 191 167 177 227 203 217 266 287 204 208 198 233 255 241 222 212 198 217 82 73 25 358 343 340 346 328 332 337 317 295 303 284 271 265 254 246 242
141 128 83 333 312 321 234 215 185 162 155 192 214 260 320 6 341 284 240 242 239 222 193 171 131 47 281 272 289 300 312 308 314 327 322 319 300 283 275 274 275 267 254 251
128 154 184 205 220 197 229 238 201 166 195 223 229 253 280 295 292 289 268 250 235 213 196 210 245 278 286 282 274 274 290 297 308 314 305 297 289 269 267 273 271 268 261 249
134 194 219 244 247 231 235 236 220 215 214 218 240 245 257 254 254 256 254 246 238 239 245 241 250 268 279 288 292 290 291 296 303 305 299 289 293 284 280 279 272 268 265 258
137 179 214 264 254 249 262 248 232 235 234 237 255 264 261 254 246 247 242 231 235 240 240 241 246 252 258 262 266 272 282 288 289 283 283 288 295 293 281 277 276 273 266 260
167 159 174 257 283 310 268 234 217 218 217 207 231 247 254 250 237 231 231 232 235 237 235 237 239 237 243 248 252 256 267 275 278 278 282 286 287 286 278 279 275 270 263 258
169 171 177 231 38 243 245 225 200 215 235 222 233 245 237 240 242 232 221 221 229 226 230 239 241 245 247 249 256 264 269 271 269 275 278 278 278 282 278 272 267 266 261 256
177 165 161 173 236 271 279 235 191 202 254 223 224 240 245 253 300 271 234 216 218 221 227 231 230 233 243 252 255 262 275 272 266 268 271 273 271 275 273 271 271 271 264 263
151 153 160 175 209 247 251 230 183 136 275 233 207 219 225 170 234 260 244 235 244 239 231 231 228 226 236 245 237 244 261 264 264 268 270 269 265 267 265 264 268 271 265 261
159 179 196 202 230 259 251 208 133 176 245 237 202 209 201 201 221 242 237 241 239 237 239 233 228 234 241 243 234 246 256 258 262 271 275 271 266 263 260 263 264 266 269 266
177 177 194 182 216 251 211 151 190 221 240 219 208 208 210 231 245 246 241 241 241 244 247 236 235 251 255 246 233 248 256 259 264 269 274 275 273 271 270 265 269 264 260 259
199 192 188 197 217 239 188 204 225 216 225 231 218 222 214 228 239 245 243 237 239 239 243 239 231 250 263 254 233 242 256 258 258 266 271 276 279 277 273 263 265 266 254 253
241 196 194 244 256 251 245 248 251 235 237 242 229 222 211 225 236 242 244 245 244 245 239 235 232 247 262 258 247 243 251 246 238 253 262 267 271 278 277 270 259 254 251 250
214 182 205 247 263 278 254 234 238 242 244 244 241 225 215 216 234 236 242 247 247 252 250 234 232 244 256 260 259 253 247 234 237 249 253 262 262 261 268 270 258 257 248 249
200 190 194 227 222 212 244 237 221 228 238 232 229 242 232 216 229 236 244 245 244 247 247 246 247 252 258 259 260 258 246 228 230 244 248 250 256 261 266 275 286 282 277 282